This is the latest recevied weather packets stored in our database for station/object VE6HFD-WX. If no packets are shown the sender has not sent any weather packets the latest 10 day(s).
| Time | Temp. | Humidity | Pressure | Rain* | Wind** | Luminosity | Snow |
|---|---|---|---|---|---|---|---|
| 1777964187 | -0.56° C | 70% | 1019.9 hPa | 0 mm | - | - | - |
| 1777963887 | 0° C | 70% | 1019.9 hPa | 0 mm | - | - | - |
| 1777963557 | 0° C | 70% | 1019.8 hPa | 0 mm | - | - | - |
| 1777963227 | 0° C | 69% | 1019.7 hPa | 0 mm | - | - | - |
| 1777962905 | 0.56° C | 69% | 1019.6 hPa | 0 mm | - | - | - |
| 1777962597 | 0.56° C | 69% | 1019.5 hPa | 0 mm | - | - | - |
| 1777962267 | 0.56° C | 69% | 1019.5 hPa | 0 mm | - | - | - |
| 1777961937 | 0.56° C | 69% | 1019.5 hPa | 0 mm | - | - | - |
| 1777961637 | 0.56° C | 68% | 1019.5 hPa | 0 mm | - | - | - |
| 1777961337 | 0.56° C | 68% | 1019.4 hPa | 0 mm | - | - | - |
| 1777961007 | 1.11° C | 68% | 1019.4 hPa | 0 mm | - | - | - |
| 1777960707 | 0.56° C | 69% | 1019.3 hPa | 0 mm | - | - | - |
| 1777960377 | 0.56° C | 70% | 1019.2 hPa | 0 mm | - | - | - |
| 1777960077 | 0° C | 70% | 1019.2 hPa | 0 mm | - | - | - |
| 1777959747 | 0° C | 69% | 1019.2 hPa | 0 mm | - | - | - |
| 1777959417 | 0.56° C | 67% | 1019.2 hPa | 0 mm | - | - | - |
| 1777959117 | 1.11° C | 67% | 1019 hPa | 0 mm | - | - | - |
| 1777958817 | 1.11° C | 67% | 1019 hPa | 0 mm | - | - | - |
| 1777958487 | 0.56° C | 67% | 1019 hPa | 0 mm | - | - | - |
| 1777958187 | 1.11° C | 68% | 1018.9 hPa | 0 mm | - | - | - |
| 1777957857 | 0° C | 70% | 1018.8 hPa | 0 mm | - | - | - |
| 1777957557 | 0° C | 71% | 1018.8 hPa | 0 mm | - | - | - |
| 1777957257 | 0° C | 68% | 1018.7 hPa | 0 mm | - | - | - |
| 1777956927 | 0.56° C | 65% | 1018.7 hPa | 0 mm | - | - | - |
| 1777956597 | 1.11° C | 66% | 1018.6 hPa | 0 mm | - | - | - |
* Rain latest hour (hover to see other rain measurements)
** Current wind speed in m/s (hover to see current wind gust speed)